User: anonymous   Login
Location: Gollag?dem
(16.8053°N, 80.8024°E)
Time: 07:04:36
(UTC+00:00)
Language:

Cosmos 1140 Rocket - Orbit

View from above orbital plane
View from above orbital plane
View from above satellite
View from above satellite

Ground track
Ground track

The orbit data is extracted from the following two-line orbital elements,

1 11574U 79089B   20299.90461346 +.00000146 +00000-0 +53640-4 0  9999
2 11574 074.0678 114.5092 0014998 065.1096 295.1617 14.40771639153622
Epoch (UTC): 25 October 2020 21:42:38
Eccentricity: 0.0014998
inclination: 74.0678°
perigee height: 745 km
apogee height: 766 km
right ascension of ascending node: 114.5092°
argument of perigee: 65.1096°
revolutions per day: 14.40771639
mean anomaly at epoch: 295.1617°
orbit number at epoch: 15362

The dashed part of the orbit path shows where the satellite is in the earth's shadow,  

DLR